OK2ARM-12 Weather Reports


Display with metric or nautical units.
time (UTC)temp
F
wind
direction
speed
MPH
gust
MPH
rain 1hr
in
rain 24hr
in
rain mn
in
humidity
%
barometer
mb
20260502140125 68 0.0 0.0 0.00 0.00 0.00 20 1022.1
20260502122901 69 0.0 0.0 0.00 0.00 0.00 20 1023.1
20260502121901 66 0.0 0.0 0.00 0.00 0.00 20 1023.3
20260502120901 65 0.0 0.0 0.00 0.00 0.00 22 1023.3
20260502115901 68 0.0 0.0 0.00 0.00 0.00 23 1023.4
20260502114901 65 0.0 0.0 0.00 0.00 0.00 22 1023.5
20260502113900 68 0.0 0.0 0.00 0.00 0.00 24 1023.7
20260502112900 66 0.0 0.0 0.00 0.00 0.00 28 1023.8
20260502111901 65 0.0 0.0 0.00 0.00 0.00 23 1024.0
20260502110901 66 0.0 0.0 0.00 0.00 0.00 25 1024.1
20260502105901 65 0.0 0.0 0.00 0.00 0.00 27 1024.3
20260502104901 65 0.0 0.0 0.00 0.00 0.00 27 1024.3
20260502103900 64 0.0 0.0 0.00 0.00 0.00 27 1024.4
20260502102900 64 0.0 0.0 0.00 0.00 0.00 29 1024.5
20260502101901 65 0.0 0.0 0.00 0.00 0.00 30 1024.7
20260502100901 64 0.0 0.0 0.00 0.00 0.00 29 1024.7
20260502071149 60 0.0 0.0 0.00 0.00 0.00 39 1026.0
20260502070149 60 0.0 0.0 0.00 0.00 0.00 40 1025.9
20260502065149 60 0.0 0.0 0.00 0.00 0.00 40 1026.0
20260502064150 60 0.0 0.0 0.00 0.00 0.00 40 1026.1
20260502063149 59 0.0 0.0 0.00 0.00 0.00 40 1026.0
20260502062149 59 0.0 0.0 0.00 0.00 0.00 42 1026.0
20260502061149 59 0.0 0.0 0.00 0.00 0.00 41 1026.1
20260502060149 58 0.0 0.0 0.00 0.00 0.00 41 1026.1
20260502055149 58 0.0 0.0 0.00 0.00 0.00 42 1026.0
20260502052926 57 0.0 0.0 0.00 0.00 0.00 42 1026.0
20260502051925 57 0.0 0.0 0.00 0.00 0.00 43 1026.1
20260502050925 56 0.0 0.0 0.00 0.00 0.00 44 1026.0
20260502045925 55 0.0 0.0 0.00 0.00 0.00 44 1026.0
20260502044925 55 0.0 0.0 0.00 0.00 0.00 44 1025.9
20260502043925 55 0.0 0.0 0.00 0.00 0.00 44 1026.0
20260502041701 54 0.0 0.0 0.00 0.00 0.00 45 1025.8
20260502035437 54 0.0 0.0 0.00 0.00 0.00 45 1025.8
20260502034438 54 0.0 0.0 0.00 0.00 0.00 45 1025.8
20260502033438 54 0.0 0.0 0.00 0.00 0.00 45 1025.8
20260502032438 54 0.0 0.0 0.00 0.00 0.00 45 1025.7
20260502031438 54 0.0 0.0 0.00 0.00 0.00 45 1025.7
20260502030437 54 0.0 0.0 0.00 0.00 0.00 44 1025.8
20260502025438 55 0.0 0.0 0.00 0.00 0.00 44 1025.8
20260502024437 55 0.0 0.0 0.00 0.00 0.00 44 1025.8
20260502023438 55 0.0 0.0 0.00 0.00 0.00 44 1025.9
20260502021214 55 0.0 0.0 0.00 0.00 0.00 45 1025.9
20260502020213 55 0.0 0.0 0.00 0.00 0.00 45 1026.0
20260502015214 54 0.0 0.0 0.00 0.00 0.00 46 1026.0
20260502014214 53 0.0 0.0 0.00 0.00 0.00 47 1026.1
20260502013215 53 0.0 0.0 0.00 0.00 0.00 48 1026.1
20260502012214 53 0.0 0.0 0.00 0.00 0.00 47 1026.1
20260502011214 54 0.0 0.0 0.00 0.00 0.00 46 1026.1
20260502010214 54 0.0 0.0 0.00 0.00 0.00 46 1026.1
20260502005213 54 0.0 0.0 0.00 0.00 0.00 45 1026.1
20260502004214 55 0.0 0.0 0.00 0.00 0.00 45 1026.2
20260502003213 55 0.0 0.0 0.00 0.00 0.00 45 1026.2
20260502002213 54 0.0 0.0 0.00 0.00 0.00 46 1026.2
20260501235950 54 0.0 0.0 0.00 0.00 0.00 46 1026.3
20260501234949 53 0.0 0.0 0.00 0.00 0.00 47 1026.4
20260501233949 53 0.0 0.0 0.00 0.00 0.00 48 1026.4
20260501232949 53 0.0 0.0 0.00 0.00 0.00 47 1026.5
20260501231949 53 0.0 0.0 0.00 0.00 0.00 47 1026.5
20260501230949 54 0.0 0.0 0.00 0.00 0.00 47 1026.5
20260501225949 54 0.0 0.0 0.00 0.00 0.00 46 1026.5
20260501224949 54 0.0 0.0 0.00 0.00 0.00 46 1026.7
20260501223949 54 0.0 0.0 0.00 0.00 0.00 46 1026.7
20260501222950 54 0.0 0.0 0.00 0.00 0.00 47 1026.7
20260501221949 53 0.0 0.0 0.00 0.00 0.00 48 1026.7
20260501220950 54 0.0 0.0 0.00 0.00 0.00 46 1026.7
20260501215950 55 0.0 0.0 0.00 0.00 0.00 45 1026.8
20260501213726 55 0.0 0.0 0.00 0.00 0.00 44 1026.8
20260501212503 56 0.0 0.0 0.00 0.00 0.00 44 1026.7
20260501211503 56 0.0 0.0 0.00 0.00 0.00 44 1026.8
20260501210503 56 0.0 0.0 0.00 0.00 0.00 44 1026.7
20260501205503 55 0.0 0.0 0.00 0.00 0.00 45 1026.7
20260501204503 56 0.0 0.0 0.00 0.00 0.00 44 1026.8
20260501203503 56 0.0 0.0 0.00 0.00 0.00 44 1026.6
20260501202503 56 0.0 0.0 0.00 0.00 0.00 44 1026.6
20260501201503 56 0.0 0.0 0.00 0.00 0.00 43 1026.5
20260501200503 56 0.0 0.0 0.00 0.00 0.00 43 1026.5
20260501195504 56 0.0 0.0 0.00 0.00 0.00 43 1026.4
20260501193622 56 0.0 0.0 0.00 0.00 0.00 45 1026.5
20260501192622 56 0.0 0.0 0.00 0.00 0.00 45 1026.5
20260501191622 56 0.0 0.0 0.00 0.00 0.00 45 1026.5
20260501190622 56 0.0 0.0 0.00 0.00 0.00 44 1026.2
20260501184357 58 0.0 0.0 0.00 0.00 0.00 41 1026.1
20260501183357 58 0.0 0.0 0.00 0.00 0.00 41 1026.0
20260501182358 58 0.0 0.0 0.00 0.00 0.00 40 1025.9
20260501181358 59 0.0 0.0 0.00 0.00 0.00 39 1025.9
20260501180357 60 0.0 0.0 0.00 0.00 0.00 37 1025.8
20260501175358 60 0.0 0.0 0.00 0.00 0.00 36 1025.7
20260501174357 61 0.0 0.0 0.00 0.00 0.00 35 1025.6
20260501173358 61 0.0 0.0 0.00 0.00 0.00 34 1025.6
20260501172358 62 0.0 0.0 0.00 0.00 0.00 33 1025.6
20260501171358 62 0.0 0.0 0.00 0.00 0.00 32 1025.6
20260501170358 63 0.0 0.0 0.00 0.00 0.00 32 1025.6
20260501165358 63 0.0 0.0 0.00 0.00 0.00 32 1025.7
20260501164359 63 0.0 0.0 0.00 0.00 0.00 31 1025.8
20260501163358 64 0.0 0.0 0.00 0.00 0.00 32 1025.8
20260501162357 64 0.0 0.0 0.00 0.00 0.00 31 1025.8
20260501161357 64 0.0 0.0 0.00 0.00 0.00 31 1025.9
20260501160358 64 0.0 0.0 0.00 0.00 0.00 31 1026.0
20260501155357 64 0.0 0.0 0.00 0.00 0.00 31 1026.0
20260501153135 64 0.0 0.0 0.00 0.00 0.00 29 1026.2
20260501152134 64 0.0 0.0 0.00 0.00 0.00 29 1026.2
20260501151134 66 0.0 0.0 0.00 0.00 0.00 29 1026.2
20260501144910 64 0.0 0.0 0.00 0.00 0.00 29 1026.4